This demonstration page uses our WeatherBlox Daily Observations layout. Learn more.

Left ArrowRight Arrow

Hourly Observations for July 17, 2018

Temp ( °F °C ) Dew Point ( °F °C ) Humidity (%) Winds ( mph kmh ) Pressure ( in mb ) Visibility ( mi km ) Precip ( " mm )
12:59 am 00:59 Partly Cloudy 79 26.1 73 22.8 82 82 SSW 9 15 29.99 1016 10 16 0.00 0.00
1:59 am 01:59 Partly Cloudy 78 25.6 73 22.8 85 85 SSW 9 15 29.99 1016 10 16 0.00 0.00
2:59 am 02:59 Partly Cloudy 78 25.6 74 23.3 87 87 SSW 9 15 29.97 1015 10 16 0.00 0.00
3:59 am 03:59 Partly Cloudy 77 25 73 22.8 88 88 SW 7 11 29.97 1015 9 14 0.00 0.00
4:59 am 04:59 Mostly Cloudy 77 25 73 22.8 88 88 SW 8 13 29.96 1014 9 14 0.00 0.00
5:59 am 05:59 Partly Cloudy 76 24.4 72 22.2 88 88 SW 9 15 29.95 1014 9 14 0.00 0.00
6:59 am 06:59 Partly Cloudy 77 25 72 22.2 85 85 SW 10 17 29.97 1015 8 13 0.00 0.00
7:59 am 07:59 Mostly Sunny 79 26.1 72 22.2 79 79 SW 7 11 29.96 1015 8 13 0.00 0.00
8:59 am 08:59 Mostly Sunny 82 27.8 72 22.2 72 72 SW 7 11 29.96 1014 8 13 0.00 0.00
9:59 am 09:59 Mostly Sunny 86 30 72 22.2 63 63 SSW 8 13 29.93 1014 8 13 0.00 0.00
10:59 am 10:59 Partly Cloudy 87 30.6 71 21.7 59 59 SW 12 19 29.94 1014 8 13 0.00 0.00
11:59 am 11:59 Mostly Cloudy 90 32.2 70 21.1 52 52 SSW 14 22 29.92 1013 9 14 0.00 0.00
12:59 pm 12:59 Mostly Cloudy 91 32.8 69 20.6 49 49 S 14 22 29.91 1013 9 14 0.00 0.00
1:59 pm 13:59 Mostly Cloudy 92 33.3 70 21.1 49 49 SSW 15 24 29.88 1012 9 14 0.00 0.00
2:59 pm 14:59 Mostly Cloudy 91 32.8 72 22.2 54 54 SW 12 19 29.85 1011 10 16 0.00 0.00
3:59 pm 15:59 Sunny 90 32.2 72 22.2 56 56 SSW 14 22 29.83 1010 10 16 0.00 0.00
4:59 pm 16:59 Mostly Cloudy 90 32.2 73 22.8 58 58 SSW 13 20 29.83 1010 9 14 0.00 0.00
5:59 pm 17:59 Mostly Cloudy 88 31.1 73 22.8 61 61 SW 10 17 29.81 1009 9 14 0.00 0.00
6:59 pm 18:59 Mostly Cloudy 87 30.6 73 22.8 63 63 WSW 8 13 29.83 1010 9 14 0.00 0.00
7:59 pm 19:59 Mostly Cloudy 85 29.4 73 22.8 68 68 WSW 6 9 29.85 1011 9 14 0.00 0.00
8:59 pm 20:59 Mostly Cloudy 83 28.3 75 23.9 77 77 SSW 7 11 29.85 1011 9 14 0.00 0.00
9:34 pm 21:34 Cloudy with Thunderstorms 82 27.8 75 23.9 79 79 SSW 8 13 29.85 1011 9 14 0.00 0.00
9:59 pm 21:59 Cloudy with Thunderstorms 82 27.8 74 23.3 77 77 WSW 7 11 29.86 1011 10 16 0.00 0.00
10:16 pm 22:16 Cloudy with Thunderstorms 77 25 73 22.8 88 88 WSW 9 15 29.88 1012 2 3 0.12 3.05
10:25 pm 22:25 Cloudy with Thunderstorms 77 25 73 22.8 88 88 SSW 8 13 29.88 1012 7 11 0.13 3.30
10:30 pm 22:30 Cloudy with Thunderstorms 76 24.4 73 22.8 91 91 WSW 8 13 29.88 1012 10 16 0.13 3.30
10:49 pm 22:49 Mostly Cloudy with Light Rain 77 25 73 22.8 88 88 W 9 15 29.88 1012 9 14 0.14 3.56
10:59 pm 22:59 Mostly Cloudy 77 25 74 23.3 90 90 W 14 22 29.86 1011 9 14 0.14 3.56
11:14 pm 23:14 Mostly Cloudy with Thunderstorms 77 25 74 23.3 90 90 SW 7 11 29.85 1011 9 14 0.00 0.00
11:25 pm 23:25 Mostly Cloudy 77 25 74 23.3 90 90 WSW 7 11 29.85 1011 9 14 0.00 0.00
11:59 pm 23:59 Mostly Cloudy 75 23.9 73 22.8 94 94 SW 13 20 29.88 1012 10 16 0.00 0.00

Powered by AerisWeather